Location: Caltech
(34.1382°N, 118.1253°W)
Time: 23:13:24
(UTC-07:00)

Cosmos 1939 Rocket - Visible Passes

Search period start: 27 July 2014 00:00
Search period end: 06 August 2014 00:00
Orbit: 545 x 591 km, 97.6° (Epoch: 27 July)

Date Brightness Start Highest point End Pass type
(mag) Time Alt. Az. Time Alt. Az. Time Alt. Az.
27 Jul 3.0 21:22:22 31° SE 21:24:01 53° ENE 21:27:57 10° N visible
28 Jul 3.0 21:23:42 32° SE 21:25:16 56° ENE 21:29:14 10° N visible
29 Jul 2.9 21:25:01 34° SE 21:26:32 58° ENE 21:30:30 10° N visible
30 Jul 2.9 21:26:21 36° SE 21:27:47 60° ENE 21:31:47 10° N visible
31 Jul 2.9 21:27:40 38° SE 21:29:02 63° ENE 21:33:03 10° N visible
01 Aug 2.8 21:29:00 40° SE 21:30:17 66° ENE 21:34:19 10° N visible
02 Aug 2.8 21:30:19 42° SE 21:31:32 68° ENE 21:35:35 10° N visible
03 Aug 2.8 21:31:39 45° SE 21:32:47 71° ENE 21:36:51 10° N visible
04 Aug 2.8 21:32:58 47° SSE 21:34:02 74° ENE 21:38:07 10° N visible
05 Aug 2.8 21:34:18 50° SSE 21:35:17 77° ENE 21:39:23 10° N visible
